Lapse_Rate
6.0 6.0 6.0 6.1 6.0 5.9 5.9 5.8 5.9 5.9 5.9 5.9 5.7 5.6 5.8 5.8 5.8 5.7 5.6 5.5 5.5 5.6
6.2 6.3 6.2 6.2 6.2 6.1 6.1 6.2 6.2 6.2 6.0 5.9 5.8 5.8 5.9 6.0 5.8 5.6 5.6 5.5 5.5 5.5
6.3 6.2 6.2 6.1 6.2 6.3 6.4 6.3 6.3 6.2 6.2 6.0 6.0 6.1 5.9 5.8 5.7 5.6 5.5 5.5 5.6 5.7
6.2 6.1 6.1 6.1 6.2 6.2 6.2 6.2 6.1 6.1 6.1 6.1 6.1 6.0 5.9 5.8 5.5 5.4 5.4 5.6 5.8 5.9
6.1 6.1 6.1 6.2 6.2 6.2 6.1 6.0 6.0 6.1 6.1 6.2 6.2 6.2 6.1 5.9 5.7 5.7 5.7 5.8 5.9 5.8
6.2 6.2 6.3 6.3 6.2 6.1 6.1 6.0 6.2 6.2 6.0 6.0 6.2 6.2 6.0 5.9 5.7 5.6 5.8 6.0 6.0 5.9
6.4 6.4 6.3 6.3 6.2 6.2 6.3 6.4 6.3 6.3 6.3 6.3 6.1 6.0 5.9 5.9 5.8 5.9 6.0 6.0 6.0 6.0
6.4 6.3 6.3 6.3 6.3 6.5 6.4 6.4 6.4 6.3 6.2 6.2 6.1 6.2 6.1 6.0 6.0 6.0 6.0 6.0 6.0 6.0
6.2 6.2 6.4 6.3 6.4 6.3 6.3 6.4 6.3 6.3 6.1 6.1 6.1 6.1 6.1 6.0 6.0 6.0 6.2 6.0 6.1 6.2
6.2 6.2 6.1 6.2 6.2 6.3 6.3 6.3 6.2 6.1 6.0 6.0 6.1 6.1 6.2 6.3 6.5 6.6 6.6 6.6 6.5 6.5
6.1 6.1 6.2 6.3 6.5 6.4 6.4 6.4 6.0 6.0 6.0 6.1 6.3 6.4 6.6 6.6 6.7 6.8 6.8 6.9 7.0 6.9
6.2 6.2 6.4 6.5 6.4 6.5 6.6 6.3 6.0 6.0 6.3 6.4 6.3 6.4 6.5 6.7 6.8 6.8 6.8 6.9 6.8 6.7
6.2 6.2 6.2 6.2 6.2 6.1 6.0 6.4 6.3 6.3 6.3 6.3 6.3 6.4 6.5 6.7 6.7 6.7 6.7 6.7 6.6 6.7
6.2 6.1 6.0 6.0 6.0 6.0 6.3 6.6 6.5 6.5 6.4 6.4 6.4 6.5 6.6 6.6 6.6 6.7 6.6 6.6 6.6 6.7
Wind_Speed
6 3 2 3 3 3 3 4 5 4 4 5 5 4 4 1 0 1 2 5 4 3
5 5 5 5 4 3 4 4 5 5 5 5 5 5 5 4 4 3 5 4 4 2
4 4 4 4 5 5 5 5 5 6 6 5 6 6 6 5 5 6 4 4 6 6
3 4 4 4 4 5 5 5 6 5 5 5 6 6 6 5 5 6 5 5 5 5
3 4 4 4 5 5 5 5 5 5 6 6 6 6 6 6 5 6 5 4 4 5
3 4 4 4 4 5 5 6 6 6 6 6 6 6 6 6 5 5 6 5 5 4
4 3 4 5 6 7 7 6 6 6 6 6 7 7 6 5 6 6 6 6 6 5
3 4 5 6 7 8 8 6 5 6 7 7 7 5 5 7 9 8 8 8 8 9
4 5 6 6 7 7 7 6 7 9 7 8 6 14 14 9 6 7 6 5 6 6
4 6 5 6 7 7 6 5 6 7 7 7 7 13 13 12 6 5 5 5 4 4
4 5 5 6 7 6 4 5 5 6 6 5 6 11 11 12 6 6 5 4 3 4
4 4 5 6 6 4 5 5 5 4 5 5 5 10 10 8 5 5 4 4 3 2
5 5 5 6 5 4 3 4 3 3 3 6 3 6 8 6 2 3 3 3 4 8
4 5 5 5 3 3 4 5 3 1 2 2 4 4 7 6 3 2 2 2 3 3
Wind_Direction
25 20 6 340 326 325 298 296 325 1 28 22 24 33 55 47 113 117 244 266 235 227
18 19 10 359 357 346 350 348 14 24 33 33 38 40 50 48 38 31 30 21 355 306
8 8 10 21 17 10 5 10 21 29 33 39 42 43 57 58 50 65 51 35 41 44
3 4 20 30 26 21 22 21 30 29 40 45 48 43 63 61 55 75 67 52 69 70
13 13 29 32 31 27 29 30 37 34 43 40 42 42 56 62 52 69 75 63 70 68
22 22 30 39 58 50 39 36 39 46 48 44 40 45 45 52 54 54 53 47 58 53
35 19 43 50 56 58 56 47 40 43 52 54 51 50 51 59 58 53 47 39 41 33
51 54 61 61 62 64 62 54 43 52 52 54 58 59 56 60 68 61 53 37 34 35
76 70 66 71 67 62 54 59 70 71 61 61 61 67 71 75 67 59 57 47 35 30
83 80 80 80 79 78 68 60 56 52 57 63 70 75 77 77 71 72 59 47 35 36
95 98 97 95 90 78 65 53 46 46 45 50 61 71 77 83 74 70 54 45 38 40
127 124 113 95 93 78 73 59 52 30 44 52 16 71 76 79 68 61 37 36 10 52
133 128 115 111 105 79 85 97 84 40 17 48 9 63 64 70 64 56 26 11 7 1
122 118 115 102 90 138 158 136 117 44 349 8 11 7 48 66 73 67 13 6 353 345